Tracking 19149 objects as of 20-Apr-2018
HD Live streaming from Space Station
objects crossing your sky now

FLOCK 3P 48

Track FLOCK 3P 48 now!
10-day predictions
FLOCK 3P 48 is classified as:


NORAD ID: 42006
Int'l Code: 2017-008BL
Perigee: 495.5 km
Apogee: 505.3 km
Inclination: 97.5 °
Period: 94.5 minutes
Semi major axis: 6871 km
RCS: Unknown
Launch date: February 15, 2017
Source: United States (US)
Launch site: SRIHARIKOTA (SRI)
aabbcc
Your satellite tracking list
Your tracking list is empty




NASA's NSSDC Master Catalog

Two Line Element Set (TLE):
1 42006U 17008BL  18109.48939531 +.00001733 +00000-0 +74100-4 0  9999
2 42006 097.4559 174.7895 0007105 206.4543 153.6332 15.24185969064958
Source of the keplerian elements: AFSPC